[[{"header":{"parameterUnit":"m.s-1","parameterCategory":1,"la1":30.2991,"la2":30.254,"lo1":-89.0895,"lo2":-89.0444,"dy":0.0017,"dx":0.0017,"nx":28,"ny":28,"refTime":"2024-05-31T09:00:00:Z","depth":0,"parameterNumber":2,"parameterNumberName":"U-component_of_WINDS"},"data":[0,0,0,0,0,0,0,0,0,0,0,0,0,0,0,0,0,0,0,0,0,0,0,0,0,0,0,0,0,0,0,0,0,0,0,0,0,0,0,0,0,0,0,0,0,0,0,0,0,0,0,0,0,0,0,0,0,0,-0.0,-0.0002,0,-0.0117,-0.0118,-0.0119,-0.0211,-0.0212,-0.0213,-0.0214,-0.0342,-0.0344,-0.0347,0,0,0,0,0,0,0,0,0,0,0,0,0,0.0136,0.0134,-0.0,-0.0002,-0.0003,-0.0116,-0.0118,-0.012,-0.0211,-0.0212,-0.0213,-0.0214,-0.0341,-0.0344,-0.0347,0,0,0,0,0,0,0,0,0,0,0,0,0,0.0054,0.0133,-0.0,-0.0062,-0.0069,-0.0116,-0.0118,-0.012,-0.0211,-0.0212,-0.0214,-0.0215,-0.034,-0.0344,-0.0347,-0.0345,0,0,-0.0359,-0.0361,0,0,0,0,0,0,0,0,0.0059,0.0049,-0.0052,-0.0058,-0.0066,-0.0151,-0.0117,-0.0196,-0.0211,-0.0157,-0.0214,-0.0215,-0.0278,-0.0287,-0.0306,-0.0351,-0.0356,-0.036,-0.0362,-0.0364,-0.0365,0,0,0,0,0,0,0,0.0064,0.0053,-0.0047,-0.0053,-0.0062,-0.0087,-0.01,-0.0132,-0.0209,-0.0162,-0.0169,-0.0181,-0.0282,-0.0302,-0.031,-0.0358,-0.036,-0.0363,-0.0365,-0.0367,-0.0405,-0.0404,0,0,0,0,0,0,0.0081,0.0059,-0.0043,-0.005,-0.0005,-0.0088,-0.0103,-0.0122,-0.0209,-0.0223,-0.018,-0.0185,-0.0295,-0.0305,-0.0314,-0.0317,-0.0364,-0.0367,-0.0369,-0.0407,-0.0405,-0.0404,0,0,0,0,0,0,0.0084,0.0073,-0.0038,0.0002,-0.0013,-0.0089,-0.011,-0.0124,-0.0144,-0.0222,-0.0237,-0.0186,-0.0296,-0.0309,-0.0336,-0.0323,-0.0369,-0.0372,-0.0408,-0.0406,-0.0404,-0.0321,0,0,0,0,0,0,0.0088,0.0074,0.0076,0.0003,-0.0015,-0.0055,-0.0109,-0.0125,-0.0149,-0.0157,-0.0232,-0.0245,-0.0298,-0.0329,-0.0339,-0.0329,-0.0375,-0.041,-0.0407,-0.0405,-0.0326,-0.0317,-0.0309,0,0,0,0,0,0.0094,0.0102,0.0076,0.0065,-0.0015,-0.0054,-0.0065,-0.0124,-0.0148,-0.0148,-0.0197,-0.0243,-0.0321,-0.0331,-0.0343,-0.0334,-0.0411,-0.0408,-0.0405,-0.0329,-0.0318,-0.0309,0,0,0,0,0,0,0.0173,0.0091,0.0062,0.0047,0.0005,-0.007,-0.0072,-0.0111,-0.015,-0.0156,-0.0229,-0.0245,-0.0264,-0.0302,-0.0311,-0.0335,-0.0372,-0.0371,-0.031,-0.0301,-0.0292,-0.0284,-0.0379,0,0,0,0,0,0.0191,0.0167,0.0095,0.0089,0.007,0.0004,-0.0016,-0.0057,-0.0105,-0.0125,-0.0177,-0.0224,-0.026,-0.0282,-0.0319,-0.033,-0.0348,-0.0329,-0.0321,-0.0314,-0.0314,-0.0322,-0.0315,-0.0394,-0.0394,-0.0394,0,0,0.0223,0.0175,0.0164,0.0104,0.0066,0.0042,-0.0012,-0.0036,-0.0055,-0.013,-0.0157,-0.0196,-0.0254,-0.0273,-0.0284,-0.0305,-0.0295,-0.031,-0.0304,-0.0308,-0.0318,-0.0311,-0.0304,-0.0392,-0.0393,-0.0393,0,0,0.027,0.0232,0.0223,0.0188,0.0133,0.0089,0.0088,0.002,-0.0008,-0.0036,-0.0092,-0.0117,-0.0176,-0.0214,-0.0242,-0.0204,-0.0248,-0.0214,-0.0173,-0.018,-0.0174,-0.0169,-0.0157,-0.0151,-0.0213,-0.0213,-0.0213,0,0.0316,0.028,0.0223,0.0204,0.0179,0.0115,0.0104,0.0072,0.0006,-0.001,-0.0032,-0.0105,-0.0149,-0.0177,-0.0167,-0.0187,-0.0193,-0.0208,-0.017,-0.0165,-0.0161,-0.0151,-0.0146,-0.0209,-0.0209,-0.021,-0.021,0,0.0339,0.0315,0.0315,0.0257,0.0233,0.0218,0.0157,0.0139,0.0102,0.006,0.0033,-0.0021,-0.0069,-0.0078,-0.0117,-0.0112,-0.0123,-0.0155,-0.0195,-0.0148,-0.014,-0.0136,-0.0202,-0.0204,-0.0205,-0.0206,0,0,0.0429,0.0344,0.0344,0.0318,0.0255,0.0234,0.0217,0.0173,0.0159,0.0117,0.0099,0.0053,0.0023,-0.0008,-0.005,-0.0056,-0.0024,-0.0089,-0.0092,-0.0076,-0.0023,0.0001,0.0007,-0.0051,-0.0051,-0.005,-0.0018,0,0.0464,0.0432,0.0382,0.0365,0.0342,0.0283,0.0268,0.0226,0.0188,0.0161,0.0117,0.0086,0.0049,0.0031,0.0022,-0.0026,-0.0015,-0.0029,-0.0072,-0.0072,-0.0057,0.0012,0.0036,0.0069,-0.0015,-0.0014,-0.0014,0,0.05,0.0466,0.0448,0.0389,0.0377,0.0364,0.0321,0.0298,0.025,0.0222,0.0191,0.0146,0.0123,0.009,0.0057,0.0048,0.0028,0.0003,0.0002,-0.0006,-0.0042,0.0003,0.0078,0.0082,-0.0009,-0.0009,-0.001,0,0.0566,0.0515,0.0498,0.0478,0.0408,0.0401,0.0371,0.0323,0.03,0.0262,0.0247,0.0206,0.0183,0.0152,0.0096,0.0078,0.0069,0.0031,0.0043,0.0045,0.0041,0.0041,0.0112,0.0033,0.0033,0.0032,0.0032,0,0.0609,0.0599,0.0527,0.0516,0.0504,0.0447,0.0436,0.0401,0.0359,0.0339,0.0285,0.0267,0.0197,0.017,0.0127,0.0105,0.0095,0.0071,0.0059,0.0074,0.0077,0.0058,0.0053,0.0034,0.0033,0.0033,0.0033,0,0.0678,0.0629,0.0607,0.0545,0.053,0.0524,0.0469,0.0456,0.0417,0.0392,0.0383,0.032,0.0286,0.023,0.0178,0.0149,0.0135,0.0116,0.0152,0.0144,0.0159,0.0158,0.0217,0.0221,0.0143,0.0144,0.0144,0,0.0707,0.07,0.0639,0.0624,0.0597,0.0572,0.0551,0.0495,0.0474,0.0422,0.0414,0.0378,0.0344,0.0293,0.0241,0.0202,0.018,0.0204,0.0173,0.019,0.0178,0.0179,0.0177,0.021,0.0211,0.0212,0.0213,0,0.0764,0.0742,0.0714,0.0679,0.0656,0.0625,0.059,0.058,0.0517,0.0496,0.0463,0.0438,0.0388,0.0351,0.0306,0.0272,0.0231,0.0224,0.0224,0.0238,0.0258,0.0246,0.0169,0.0221,0.022,0.022,0.0219,0.0219,0.0813,0.0804,0.0761,0.0732,0.0702,0.0672,0.0657,0.0618,0.0591,0.0548,0.0517,0.0486,0.0439,0.0374,0.0344,0.0318,0.0299,0.0299,0.0299,0.03,0.0305,0.0266,0.0309,0.0309,0.0309,0.0308,0.0308,0,0.0865,0.0836,0.0811,0.0767,0.0745,0.0714,0.0675,0.0657,0.0632,0.0594,0.0565,0.0527,0.0492,0.044,0.0401,0.039,0.037,0.0381,0.0379,0.0372,0.0325,0.0328,0.0398,0.0398,0.0398,0.0398,0.0398,0.0398,0.089,0.0873,0.0846,0.0814,0.0784,0.0756,0.0736,0.0708,0.0678,0.064,0.0612,0.058,0.0536,0.0494,0.046,0.0445,0.0432,0.0449,0.0428,0.0384,0.0375,0.0367,0.037,0.0447,0.0447,0.0477,0.0478,0.0478]},{"header":{"parameterUnit":"m.s-1","parameterCategory":1,"la1":30.2991,"la2":30.254,"lo1":-89.0895,"lo2":-89.0444,"dy":0.0017,"dx":0.0017,"nx":28,"ny":28,"refTime":"2024-05-31T09:00:00:Z","depth":0,"parameterNumber":3,"parameterNumberName":"V-component_of_WINDS"},"data":[0,0,0,0,0,0,0,0,0,0,0,0,0,0,0,0,0,0,0,0,0,0,0,0,0,0,0,0,0,0,0,0,0,0,0,0,0,0,0,0,0,0,0,0,0,0,0,0,0,0,0,0,0,0,0,0,0,0,5.564,5.564,0,5.5637,5.5637,5.5637,5.5563,5.5561,5.5559,5.5557,5.5553,5.5555,5.5556,0,0,0,0,0,0,0,0,0,0,0,0,0,5.5584,5.5585,5.564,5.564,5.564,5.5637,5.5637,5.5637,5.5563,5.5561,5.5559,5.5556,5.5553,5.5555,5.5557,0,0,0,0,0,0,0,0,0,0,0,0,0,5.5597,5.5586,5.564,5.5603,5.56,5.5637,5.5637,5.5637,5.5564,5.5561,5.5558,5.5555,5.5552,5.5554,5.5557,5.5629,0,0,5.5564,5.5566,0,0,0,0,0,0,0,0,5.5597,5.5599,5.5609,5.5606,5.5602,5.5597,5.5615,5.5634,5.5564,5.5577,5.5557,5.5554,5.557,5.5571,5.5576,5.5629,5.5629,5.5565,5.5566,5.5567,5.5568,0,0,0,0,0,0,0,5.5596,5.5599,5.5639,5.5609,5.5605,5.5587,5.5586,5.5619,5.559,5.5576,5.5571,5.5571,5.5568,5.5574,5.5576,5.5629,5.5565,5.5567,5.5568,5.5569,5.5742,5.5745,0,0,0,0,0,0,5.56,5.5599,5.5639,5.5639,5.5592,5.559,5.5589,5.5602,5.5589,5.5584,5.5574,5.5568,5.5571,5.5573,5.5575,5.566,5.5567,5.557,5.5571,5.5739,5.5742,5.5746,0,0,0,0,0,0,5.5599,5.5604,5.5639,5.5617,5.562,5.5594,5.5609,5.5603,5.5609,5.5587,5.5582,5.5586,5.5569,5.5572,5.5617,5.5658,5.5571,5.5573,5.5735,5.574,5.5744,5.5828,0,0,0,0,0,0,5.5598,5.5604,5.5631,5.5619,5.5622,5.568,5.5612,5.5605,5.5614,5.5606,5.5597,5.5593,5.5567,5.5613,5.5619,5.566,5.5575,5.5731,5.5737,5.5742,5.5822,5.5835,5.5847,0,0,0,0,0,5.5596,5.5654,5.5633,5.5638,5.5655,5.5683,5.5684,5.5654,5.5618,5.5644,5.5631,5.5593,5.5653,5.5619,5.5624,5.5667,5.5728,5.5735,5.5742,5.5816,5.5833,5.5847,0,0,0,0,0,0,5.5671,5.5652,5.5628,5.5684,5.5686,5.567,5.5703,5.5672,5.5684,5.5676,5.5638,5.5637,5.5688,5.5682,5.5643,5.5737,5.5684,5.5693,5.5739,5.5754,5.5767,5.5766,5.5577,0,0,0,0,0,5.5695,5.5719,5.5701,5.5752,5.5754,5.5729,5.574,5.5717,5.5717,5.5717,5.5706,5.5708,5.5727,5.574,5.5757,5.5821,5.5819,5.5854,5.5866,5.5877,5.5884,5.5919,5.5935,5.5768,5.5768,5.5768,0,0,5.5743,5.5735,5.5753,5.5767,5.5766,5.5792,5.573,5.576,5.5779,5.5721,5.5763,5.5756,5.5755,5.581,5.5834,5.5807,5.593,5.5886,5.5894,5.5896,5.5928,5.5944,5.5958,5.5773,5.5772,5.5772,0,0,5.5844,5.5841,5.5883,5.5884,5.5883,5.5866,5.5877,5.5867,5.586,5.5901,5.5859,5.5882,5.5916,5.5917,5.5922,5.6028,5.5994,5.6034,5.61,5.6134,5.6147,5.6159,5.6196,5.621,5.6042,5.6042,5.6042,0,5.5903,5.5941,5.5909,5.5943,5.5951,5.5901,5.5945,5.5947,5.5951,5.5958,5.5928,5.5971,5.5967,5.6022,5.6049,5.6054,5.6066,5.6034,5.6148,5.6159,5.6169,5.6205,5.6219,5.6047,5.6047,5.6046,5.6046,0,5.6015,5.6042,5.6077,5.6084,5.6096,5.6135,5.6109,5.6125,5.6102,5.6089,5.6132,5.6126,5.6141,5.6153,5.613,5.6206,5.6189,5.6155,5.61,5.6191,5.6223,5.6237,5.6054,5.6052,5.6051,5.605,0,0,5.616,5.6151,5.6165,5.6168,5.6165,5.6185,5.6223,5.6238,5.6253,5.6259,5.6289,5.632,5.6289,5.6295,5.6272,5.6302,5.6387,5.6264,5.6263,5.6287,5.6471,5.6497,5.6513,5.6365,5.6368,5.637,5.6471,0,5.6258,5.6321,5.6294,5.636,5.6385,5.634,5.6372,5.6374,5.6364,5.6384,5.6372,5.6395,5.6351,5.6355,5.6383,5.6371,5.6423,5.6363,5.6393,5.6394,5.6394,5.653,5.6557,5.6653,5.6484,5.6486,5.6487,0,5.6379,5.6392,5.646,5.6454,5.6464,5.6494,5.6507,5.6527,5.6529,5.6519,5.6527,5.6498,5.6535,5.6483,5.6533,5.6493,5.6504,5.65,5.6503,5.6504,5.6446,5.6535,5.6683,5.6698,5.6507,5.6506,5.6504,0,5.6479,5.6513,5.6558,5.6562,5.6557,5.6579,5.6578,5.6577,5.6589,5.66,5.6608,5.6624,5.6632,5.6645,5.6622,5.6586,5.6676,5.6621,5.6669,5.667,5.6689,5.6688,5.6841,5.6697,5.6697,5.6697,5.6696,0,5.6591,5.6634,5.6603,5.6631,5.6679,5.6649,5.6698,5.6691,5.6692,5.6718,5.668,5.6705,5.6673,5.6696,5.6678,5.6722,5.6727,5.672,5.6714,5.6723,5.6724,5.6729,5.6721,5.67,5.67,5.6699,5.6698,0,5.6709,5.669,5.6737,5.6729,5.6728,5.6764,5.6757,5.6783,5.677,5.6804,5.6811,5.6791,5.6816,5.6794,5.6818,5.6806,5.6866,5.6851,5.6865,5.6861,5.691,5.6905,5.7071,5.7091,5.6935,5.6937,5.6938,0,5.6781,5.6814,5.681,5.6825,5.6827,5.6852,5.6864,5.6837,5.6851,5.6857,5.6883,5.6905,5.692,5.6963,5.6951,5.6969,5.6954,5.7011,5.6957,5.6965,5.6955,5.6953,5.6957,5.7022,5.7024,5.7025,5.7026,0,5.6911,5.6901,5.692,5.6937,5.6953,5.6965,5.6974,5.6989,5.6961,5.6979,5.7005,5.7017,5.7043,5.7065,5.708,5.7079,5.7048,5.7044,5.7056,5.7065,5.7072,5.7069,5.6895,5.704,5.7039,5.7038,5.7037,5.7036,5.7008,5.7036,5.7038,5.7062,5.7066,5.7076,5.71,5.7092,5.7113,5.7131,5.7114,5.7145,5.7148,5.7165,5.7168,5.7192,5.7169,5.7186,5.719,5.7195,5.7202,5.7069,5.7195,5.7195,5.7194,5.7194,5.7193,0,5.7136,5.7136,5.7158,5.7173,5.7192,5.7163,5.7172,5.7189,5.7218,5.7223,5.724,5.7271,5.7293,5.7284,5.7303,5.7325,5.7311,5.7331,5.7328,5.7329,5.7222,5.721,5.7341,5.7341,5.7341,5.7341,5.7341,5.7341,5.7205,5.7251,5.7241,5.7289,5.7288,5.7319,5.7327,5.7336,5.7341,5.7376,5.7395,5.7389,5.7389,5.7409,5.7429,5.7425,5.7434,5.7459,5.7451,5.7351,5.7336,5.7322,5.731,5.7461,5.7461,5.7555,5.7556,5.7557]}]]